When you browse on this site, cookies collect data to enhance your experience and personalize the content and advertising you see.
Visit our Privacy Policy to learn more. By continuing to use the site, you agree to this use of cookies and data.
  • In Czech Republic
  • List of Countries
  • For 7 days
  • Water Temperature
  • Satellite Maps
  • Weather Map
  • Weather Widgets
  • user-avatar
    Login

    Hourly Weather Wellington

    Today, 19 April, Friday

    Time Temperature Precipitation Wind Pressure Humidity
    00:00 +27°C° 0 mm 5 mps 759 mmHg 75%
    01:00 +26°C° 0 mm 4 mps 759 mmHg 82%
    02:00 +26°C° 0.1 mm 5 mps 759 mmHg 81%
    03:00 +26°C° 0.1 mm 6 mps 759 mmHg 80%
    04:00 +26°C° 0.1 mm 6 mps 758 mmHg 79%
    05:00 +27°C° 0.9 mm 6 mps 758 mmHg 78%
    06:00 +27°C° 0.9 mm 7 mps 759 mmHg 77%
    07:00 +27°C° 0.9 mm 7 mps 759 mmHg 77%
    08:00 +28°C° 0.1 mm 7 mps 759 mmHg 69%
    09:00 +31°C° 0.1 mm 8 mps 759 mmHg 61%
    10:00 +33°C° 0.1 mm 8 mps 759 mmHg 54%
    11:00 +33°C° 0.9 mm 8 mps 759 mmHg 54%
    12:00 +33°C° 0.9 mm 9 mps 758 mmHg 54%
    13:00 +33°C° 0.9 mm 9 mps 758 mmHg 54%
    14:00 +33°C° 0.9 mm 8 mps 758 mmHg 55%
    15:00 +32°C° 0.9 mm 8 mps 757 mmHg 55%
    16:00 +30°C° 0.9 mm 7 mps 757 mmHg 56%
    17:00 +30°C° 0.1 mm 7 mps 757 mmHg 57%
    18:00 +29°C° 0.1 mm 7 mps 757 mmHg 58%
    19:00 +28°C° 0.1 mm 6 mps 757 mmHg 60%
    20:00 +27°C° 0.5 mm 6 mps 758 mmHg 68%
    21:00 +24°C° 0.5 mm 6 mps 758 mmHg 76%
    22:00 +22°C° 0.5 mm 5 mps 759 mmHg 84%
    23:00 +22°C° 0 mm 5 mps 759 mmHg 80%

    Tomorrow, 20 April, Saturday

    Time Temperature Precipitation Wind Pressure Humidity
    00:00 +21°C° 0 mm 4 mps 759 mmHg 76%
    01:00 +21°C° 0 mm 4 mps 759 mmHg 72%
    02:00 +20°C° 0 mm 4 mps 759 mmHg 71%
    03:00 +20°C° 0 mm 3 mps 759 mmHg 70%
    04:00 +20°C° 0 mm 3 mps 759 mmHg 69%
    05:00 +20°C° 0 mm 3 mps 759 mmHg 67%
    06:00 +20°C° 0 mm 2 mps 759 mmHg 65%
    07:00 +21°C° 0 mm 2 mps 760 mmHg 64%
    08:00 +22°C° 0 mm 3 mps 760 mmHg 58%
    09:00 +23°C° 0 mm 5 mps 761 mmHg 52%
    10:00 +26°C° 0 mm 6 mps 761 mmHg 47%
    11:00 +27°C° 0 mm 6 mps 761 mmHg 45%
    12:00 +28°C° 0 mm 6 mps 761 mmHg 43%
    13:00 +29°C° 0 mm 6 mps 761 mmHg 41%
    14:00 +28°C° 0 mm 6 mps 760 mmHg 43%
    15:00 +28°C° 0 mm 6 mps 760 mmHg 46%
    16:00 +27°C° 0 mm 6 mps 760 mmHg 48%
    17:00 +26°C° 0 mm 6 mps 760 mmHg 51%
    18:00 +23°C° 0 mm 5 mps 760 mmHg 55%
    19:00 +22°C° 0 mm 4 mps 761 mmHg 58%
    20:00 +21°C° 0 mm 4 mps 761 mmHg 57%
    21:00 +20°C° 0 mm 4 mps 762 mmHg 56%
    22:00 +20°C° 0 mm 4 mps 763 mmHg 56%
    23:00 +19°C° 0 mm 3 mps 763 mmHg 56%

    Day after tomorrow, 21 April, Sunday

    Time Temperature Precipitation Wind Pressure Humidity
    00:00 +19°C° 0 mm 3 mps 763 mmHg 56%
    01:00 +18°C° 0 mm 2 mps 763 mmHg 57%
    02:00 +18°C° 0 mm 2 mps 763 mmHg 57%
    03:00 +18°C° 0 mm 2 mps 762 mmHg 57%
    04:00 +20°C° 0 mm 1 mps 762 mmHg 57%
    05:00 +19°C° 0 mm 2 mps 763 mmHg 59%
    06:00 +19°C° 0 mm 2 mps 763 mmHg 60%
    07:00 +19°C° 0 mm 2 mps 764 mmHg 62%
    08:00 +21°C° 0 mm 2 mps 764 mmHg 57%
    09:00 +23°C° 0 mm 2 mps 764 mmHg 52%
    10:00 +24°C° 0 mm 3 mps 765 mmHg 47%
    11:00 +25°C° 0 mm 3 mps 765 mmHg 45%
    12:00 +25°C° 0 mm 3 mps 764 mmHg 42%
    13:00 +26°C° 0 mm 3 mps 764 mmHg 39%
    14:00 +26°C° 0 mm 3 mps 764 mmHg 37%
    15:00 +27°C° 0 mm 3 mps 763 mmHg 35%
    16:00 +27°C° 0 mm 3 mps 763 mmHg 33%
    17:00 +26°C° 0 mm 3 mps 763 mmHg 37%
    18:00 +24°C° 0 mm 3 mps 763 mmHg 41%
    19:00 +22°C° 0 mm 3 mps 763 mmHg 45%
    20:00 +21°C° 0 mm 3 mps 764 mmHg 48%
    21:00 +21°C° 0 mm 3 mps 764 mmHg 52%
    22:00 +20°C° 0 mm 3 mps 765 mmHg 55%
    23:00 +20°C° 0 mm 2 mps 765 mmHg 56%

    22 April, Monday

    Time Temperature Precipitation Wind Pressure Humidity
    00:00 +20°C° 0 mm 2 mps 764 mmHg 56%
    01:00 +19°C° 0 mm 2 mps 764 mmHg 57%
    02:00 +19°C° 0 mm 2 mps 764 mmHg 57%
    03:00 +19°C° 0 mm 2 mps 764 mmHg 56%
    04:00 +19°C° 0 mm 3 mps 764 mmHg 56%
    05:00 +19°C° 0 mm 3 mps 764 mmHg 57%
    06:00 +19°C° 0 mm 3 mps 764 mmHg 58%
    07:00 +20°C° 0 mm 3 mps 764 mmHg 59%
    08:00 +22°C° 0 mm 4 mps 765 mmHg 53%
    09:00 +25°C° 0 mm 4 mps 765 mmHg 47%
    10:00 +27°C° 0 mm 4 mps 765 mmHg 40%
    11:00 +28°C° 0 mm 5 mps 765 mmHg 39%
    12:00 +28°C° 0 mm 5 mps 764 mmHg 38%
    13:00 +29°C° 0 mm 5 mps 764 mmHg 36%
    14:00 +29°C° 0 mm 5 mps 763 mmHg 38%
    15:00 +28°C° 0 mm 5 mps 763 mmHg 40%
    16:00 +28°C° 0 mm 5 mps 762 mmHg 41%
    17:00 +26°C° 0 mm 5 mps 763 mmHg 46%
    18:00 +25°C° 0 mm 4 mps 763 mmHg 51%
    19:00 +23°C° 0 mm 4 mps 763 mmHg 56%
    20:00 +22°C° 0 mm 4 mps 763 mmHg 58%
    21:00 +22°C° 0 mm 4 mps 764 mmHg 60%
    22:00 +21°C° 0 mm 3 mps 764 mmHg 62%
    23:00 +21°C° 0 mm 3 mps 764 mmHg 63%

    23 April, Tuesday

    Time Temperature Precipitation Wind Pressure Humidity
    00:00 +21°C° 0 mm 3 mps 763 mmHg 64%
    01:00 +21°C° 0 mm 3 mps 763 mmHg 64%
    02:00 +21°C° 0 mm 3 mps 763 mmHg 65%
    03:00 +21°C° 0 mm 3 mps 763 mmHg 66%
    04:00 +21°C° 0 mm 3 mps 762 mmHg 66%
    05:00 +21°C° 0 mm 3 mps 763 mmHg 66%
    06:00 +22°C° 0 mm 3 mps 763 mmHg 65%
    07:00 +22°C° 0 mm 3 mps 763 mmHg 65%
    08:00 +23°C° 0 mm 4 mps 764 mmHg 61%
    09:00 +25°C° 0 mm 4 mps 764 mmHg 58%
    10:00 +26°C° 0 mm 4 mps 764 mmHg 55%
    11:00 +26°C° 0 mm 4 mps 763 mmHg 54%
    12:00 +27°C° 0 mm 4 mps 763 mmHg 54%
    13:00 +27°C° 0 mm 4 mps 762 mmHg 53%
    14:00 +27°C° 0 mm 4 mps 762 mmHg 52%
    15:00 +28°C° 0 mm 5 mps 762 mmHg 51%
    16:00 +28°C° 0 mm 5 mps 761 mmHg 50%
    17:00 +27°C° 0 mm 4 mps 762 mmHg 54%
    18:00 +25°C° 0 mm 4 mps 762 mmHg 58%
    19:00 +24°C° 0 mm 3 mps 762 mmHg 62%
    20:00 +24°C° 0 mm 3 mps 762 mmHg 64%
    21:00 +22°C° 0 mm 3 mps 763 mmHg 65%
    22:00 +22°C° 0 mm 3 mps 763 mmHg 66%
    23:00 +22°C° 0 mm 3 mps 763 mmHg 67%

    24 April, Wednesday

    Time Temperature Precipitation Wind Pressure Humidity
    00:00 +23°C° 0 mm 2 mps 762 mmHg 68%
    01:00 +23°C° 0 mm 2 mps 762 mmHg 69%
    02:00 +21°C° 0 mm 2 mps 762 mmHg 70%
    03:00 +21°C° 0 mm 2 mps 761 mmHg 70%
    04:00 +21°C° 0 mm 2 mps 761 mmHg 71%
    05:00 +23°C° 0 mm 2 mps 761 mmHg 70%
    06:00 +23°C° 0 mm 2 mps 762 mmHg 68%
    07:00 +24°C° 0 mm 2 mps 762 mmHg 66%
    08:00 +25°C° 0 mm 2 mps 762 mmHg 60%
    09:00 +27°C° 0 mm 3 mps 762 mmHg 54%
    10:00 +28°C° 0 mm 3 mps 762 mmHg 48%
    11:00 +29°C° 0 mm 3 mps 762 mmHg 46%
    12:00 +30°C° 0 mm 3 mps 762 mmHg 44%
    13:00 +31°C° 0 mm 3 mps 761 mmHg 41%
    14:00 +30°C° 0 mm 3 mps 761 mmHg 43%
    15:00 +30°C° 0 mm 3 mps 761 mmHg 44%
    16:00 +30°C° 0 mm 4 mps 760 mmHg 45%
    17:00 +28°C° 0 mm 4 mps 760 mmHg 50%
    18:00 +27°C° 0 mm 4 mps 760 mmHg 54%
    19:00 +25°C° 0 mm 3 mps 761 mmHg 59%
    20:00 +25°C° 0 mm 3 mps 761 mmHg 60%
    21:00 +24°C° 0 mm 3 mps 761 mmHg 61%
    22:00 +24°C° 0 mm 2 mps 761 mmHg 62%
    23:00 +24°C° 0 mm 2 mps 761 mmHg 64%
    Show more